Regional Weather Roundup
Issued by NWS

Home | Current Version | Previous Version | Graphics & Text | Print | Product List | Glossary On
Versions: 1 2 3 4 5 6 7 8 9 10 11 12 13 14 15 16 17 18 19 20 21 22 23 24 25 26 27 28 29 30 31 32 33 34 35 36 37 38 39 40 41 42 43 44 45 46 47 48 49 50
000
ASUS43 KIND 280709
RWRIN

WEATHER ROUNDUP FOR INDIANA
NATIONAL WEATHER SERVICE INDIANAPOLIS IN
300 AM EDT SUN AUG 28 2016

NOTE: "FAIR" INDICATES FEW OR NO CLOUDS BELOW 12,000 FEET WITH NO
SIGNIFICANT WEATHER AND/OR OBSTRUCTIONS TO VISIBILITY.

* - STATION DOES NOT REPORT WEATHER SUCH AS PRECIPITATION OR FOG.

+ - STATION NOT QUALITY CONTROLLED BY THE NATIONAL WEATHER SERVICE.
    USE DATA WITH CAUTION...ESPECIALLY DEWPOINT AND RELATIVE
    HUMIDITY OBSERVATIONS.

INZ001>003-010>013-019-020-280800-
NORTHWEST INDIANA

CITY           SKY/WX    TMP DP  RH WIND       PRES   REMARKS
GARY /AIRPORT/ MOCLDY    78  74  86 SW6       30.11R
KNOX *+        CLOUDY    72  59  64 S6        30.12S
LA PORTE +     CLOUDY   N/A N/A N/A CALM      30.13R
MICHIGAN CITY+ CLOUDY    72  72 100 MISG      30.12R
MONTICELLO +   PTCLDY    72  68  88 CALM      30.13R
RENSSELAER +   PTCLDY    72  72 100 CALM      30.12F
VALPARAISO     PTCLDY    74  71  91 SW3       30.13R

$$

LMZ046-743>745-280800-
SOUTHERN LAKE MICHIGAN

STATION/POSITION TIME  TEMP    WIND        PRES    WAVE
                       AIR SEA DIR/SP/G            HT
                 (UTC) (F)     (DEG/KT/KT) (MB)    (FT)
BURNS HARBOR     0602   77     190/  6/ 14 1019.6R
MICHIGAN CITY    0600   76     200/  7/  8   N/A
5NW MICH CITY    0700   76 76  180/  2/  4   N/A     1

$$

INZ004-005-014>016-021>024-280800-
NORTH CENTRAL INDIANA

CITY           SKY/WX    TMP DP  RH WIND       PRES   REMARKS
GOSHEN         CLEAR     73  69  87 S7        30.12F
LOGANSPORT +   PTCLDY    70  70 100 CALM      30.14S FOG
PERU/GRISSOM   CLOUDY    71  71 100 CALM      30.13S
ROCHESTER +    CLOUDY    75  73  94 S3        30.14S
SOUTH BEND     CLOUDY    73  72  96 SW5       30.12S
WARSAW +       PTCLDY    72  72 100 CALM      30.13F

$$

INZ006>009-017-018-025>027-280800-
NORTHEAST INDIANA

CITY           SKY/WX    TMP DP  RH WIND       PRES   REMARKS
ANGOLA *+      CLEAR     70  63  78 CALM      30.14S
AUBURN +       PTCLDY    70  68  94 CALM      30.15R
FORT WAYNE     PTCLDY    69  67  93 CALM      30.15R
HUNTINGTON +   PTCLDY    68  67  96 CALM      30.15R

$$

INZ028-029-035-036-043>045-051>053-280800-
WEST CENTRAL INDIANA

CITY           SKY/WX    TMP DP  RH WIND       PRES   REMARKS
CRAWFORDSVL +  CLEAR     68  68 100 CALM      30.14S
GREENCASTLE +  PTCLDY    72  72 100 CALM      30.14S
LAFAYETTE      MOCLDY    71  71 100 CALM      30.12S
TERRE HAUTE    CLEAR     71  69  93 CALM      30.12S FOG

$$

INZ030>032-037>040-046>048-054>057-064-065-280800-
CENTRAL INDIANA

CITY           SKY/WX    TMP DP  RH WIND       PRES   REMARKS
INDIANAPOLIS   PTCLDY    74  72  93 CALM      30.13S
-EAGLE CREEK   PTCLDY    75  72  90 CALM      30.13S
KOKOMO *+      PTCLDY    70  70 100 S5        30.14S
MARION +       CLEAR     67  67  98 CALM      30.15S
MT COMFORT *+  CLOUDY    68  68 100 CALM      30.14S
SHELBYVILLE    CLEAR     72  69  90 CALM      30.13R
ZIONSVILLE +   FOG       67  67  99 CALM      30.15S VSB 1/4

$$

INZ033-034-041-042-049-050-058-059-280800-
EAST CENTRAL INDIANA

CITY           SKY/WX    TMP DP  RH WIND       PRES   REMARKS
MUNCIE         CLEAR     74  71  91 SW3       30.14S

$$

INZ060-061-067>069-081>083-085>088-280800-
SOUTHWEST INDIANA

CITY           SKY/WX    TMP DP  RH WIND       PRES   REMARKS
EVANSVILLE     CLEAR     75  73  93 NE3       30.11S
HUNTINGBURG *+ CLEAR     73  72  94 CALM      30.11F
WASHINGTON +   PTCLDY    73  73 100 MISG      30.11S FOG

$$

INZ062-063-066-070>080-084-089>092-280800-
SOUTH CENTRAL AND SOUTHEAST INDIANA

CITY           SKY/WX    TMP DP  RH WIND       PRES   REMARKS
BLOOMINGTON    PTCLDY    76  72  87 SE5       30.12F
MADISON *+     CLEAR     72  70  94 CALM      30.16S

$$





USA.gov is the U.S. government's official web portal to all federal, state and local government web resources and services.